{"data":{"norad_id":56553,"epoch":"2026-05-25T01:21:59.874336Z","epoch_age_seconds":74133,"freshness":"FRESH","line1":"1 56553U 23065BC  26145.05694299  .00000067  00000+0  11955-4 0  9999","line2":"2 56553  43.0029 152.1132 0001101 309.8432  50.2323 15.27575004168153","mean_motion":15.27575004,"eccentricity":0.0001101,"inclination_deg":43.0029,"raan_deg":152.1132,"arg_perigee_deg":309.8432,"mean_anomaly_deg":50.2323,"bstar":1.1955e-5,"rev_number":16815,"period_min":94.267057017123,"perigee_km":482.30863766547,"apogee_km":483.81947413798,"semimajor_km":6861.2010559017,"source":"CELESTRAK","updated_at":"2026-05-25T13:38:18.117292Z"}}